• In Russia
  • List of Countries
  • For 7 days
  • Water Temperature
  • Satellite Maps
  • Weather Map
  • Weather Widgets
  • user-avatar
    Login

    Hourly Weather Mauritius

    Today, 11 December, Monday

    Time Temperature Precipitation Wind Pressure Humidity
    00:00 +25°C° 0 mm 5 mps 723 mmHg 76%
    01:00 +25°C° 0 mm 5 mps 723 mmHg 77%
    02:00 +25°C° 0 mm 5 mps 723 mmHg 77%
    03:00 +25°C° 0 mm 5 mps 723 mmHg 76%
    04:00 +25°C° 0 mm 5 mps 722 mmHg 76%
    05:00 +25°C° 0 mm 5 mps 723 mmHg 75%
    06:00 +25°C° 0 mm 5 mps 723 mmHg 74%
    07:00 +25°C° 0 mm 5 mps 723 mmHg 74%
    08:00 +26°C° 0 mm 5 mps 723 mmHg 71%
    09:00 +27°C° 0 mm 5 mps 723 mmHg 68%
    10:00 +27°C° 0 mm 4 mps 724 mmHg 63%
    11:00 +27°C° 0 mm 4 mps 724 mmHg 62%
    12:00 +28°C° 0 mm 4 mps 724 mmHg 61%
    13:00 +28°C° 0 mm 4 mps 724 mmHg 60%
    14:00 +28°C° 0 mm 4 mps 723 mmHg 61%
    15:00 +28°C° 0 mm 4 mps 723 mmHg 62%
    16:00 +28°C° 0 mm 4 mps 723 mmHg 64%
    17:00 +27°C° 0.1 mm 3 mps 723 mmHg 66%
    18:00 +27°C° 0.1 mm 3 mps 723 mmHg 69%
    19:00 +26°C° 0.1 mm 3 mps 724 mmHg 71%
    20:00 +26°C° 0.1 mm 3 mps 724 mmHg 74%
    21:00 +26°C° 0.1 mm 3 mps 724 mmHg 76%
    22:00 +26°C° 0.1 mm 3 mps 724 mmHg 78%
    23:00 +25°C° 0.1 mm 3 mps 724 mmHg 79%

    Tomorrow, 12 December, Tuesday

    Time Temperature Precipitation Wind Pressure Humidity
    00:00 +25°C° 0.1 mm 3 mps 724 mmHg 80%
    01:00 +25°C° 0.1 mm 3 mps 724 mmHg 81%
    02:00 +25°C° 0 mm 3 mps 724 mmHg 81%
    03:00 +25°C° 0 mm 3 mps 724 mmHg 82%
    04:00 +25°C° 0 mm 3 mps 723 mmHg 82%
    05:00 +25°C° 0 mm 3 mps 724 mmHg 82%
    06:00 +25°C° 0 mm 3 mps 724 mmHg 81%
    07:00 +25°C° 0 mm 3 mps 724 mmHg 80%
    08:00 +26°C° 0 mm 3 mps 724 mmHg 77%
    09:00 +27°C° 0 mm 3 mps 724 mmHg 74%
    10:00 +27°C° 0 mm 3 mps 724 mmHg 70%
    11:00 +27°C° 0 mm 3 mps 724 mmHg 71%
    12:00 +28°C° 0 mm 3 mps 724 mmHg 71%
    13:00 +28°C° 0 mm 3 mps 724 mmHg 71%
    14:00 +28°C° 0.2 mm 3 mps 724 mmHg 72%
    15:00 +27°C° 0.2 mm 4 mps 723 mmHg 74%
    16:00 +27°C° 0.2 mm 4 mps 723 mmHg 75%
    17:00 +27°C° 0.2 mm 4 mps 723 mmHg 77%
    18:00 +26°C° 0.2 mm 4 mps 724 mmHg 79%
    19:00 +26°C° 0.2 mm 4 mps 724 mmHg 81%
    20:00 +26°C° 0.1 mm 4 mps 724 mmHg 82%
    21:00 +26°C° 0.1 mm 4 mps 725 mmHg 82%
    22:00 +26°C° 0.1 mm 4 mps 725 mmHg 83%
    23:00 +26°C° 0.2 mm 4 mps 725 mmHg 82%

    Day after tomorrow, 13 December, Wednesday

    Time Temperature Precipitation Wind Pressure Humidity
    00:00 +26°C° 0.2 mm 5 mps 725 mmHg 82%
    01:00 +26°C° 0.2 mm 5 mps 724 mmHg 82%
    02:00 +26°C° 0.2 mm 5 mps 724 mmHg 83%
    03:00 +25°C° 0.2 mm 4 mps 724 mmHg 84%
    04:00 +25°C° 0.2 mm 4 mps 724 mmHg 84%
    05:00 +25°C° 0.2 mm 5 mps 724 mmHg 84%
    06:00 +25°C° 0.2 mm 5 mps 724 mmHg 84%
    07:00 +26°C° 0.2 mm 5 mps 724 mmHg 84%
    08:00 +26°C° 0.2 mm 5 mps 724 mmHg 81%
    09:00 +27°C° 0.2 mm 6 mps 725 mmHg 77%
    10:00 +28°C° 0.2 mm 6 mps 725 mmHg 74%
    11:00 +28°C° 0.3 mm 6 mps 724 mmHg 72%
    12:00 +28°C° 0.3 mm 6 mps 724 mmHg 70%
    13:00 +29°C° 0.3 mm 6 mps 724 mmHg 67%
    14:00 +29°C° 0.1 mm 6 mps 724 mmHg 68%
    15:00 +29°C° 0.1 mm 6 mps 723 mmHg 69%
    16:00 +28°C° 0.1 mm 6 mps 723 mmHg 69%
    17:00 +28°C° 0 mm 6 mps 723 mmHg 72%
    18:00 +27°C° 0 mm 6 mps 723 mmHg 76%
    19:00 +27°C° 0 mm 6 mps 723 mmHg 79%
    20:00 +26°C° 0 mm 6 mps 724 mmHg 80%
    21:00 +26°C° 0 mm 6 mps 724 mmHg 81%
    22:00 +26°C° 0 mm 6 mps 725 mmHg 82%
    23:00 +26°C° 0 mm 6 mps 724 mmHg 82%

    14 December, Thursday

    Time Temperature Precipitation Wind Pressure Humidity
    00:00 +26°C° 0 mm 6 mps 724 mmHg 83%
    01:00 +26°C° 0 mm 6 mps 724 mmHg 83%
    02:00 +26°C° 0 mm 6 mps 724 mmHg 83%
    03:00 +26°C° 0 mm 6 mps 724 mmHg 84%
    04:00 +24°C° 0 mm 6 mps 723 mmHg 84%
    05:00 +26°C° 0 mm 6 mps 724 mmHg 83%
    06:00 +26°C° 0 mm 6 mps 724 mmHg 82%
    07:00 +26°C° 0 mm 6 mps 724 mmHg 81%
    08:00 +26°C° 0 mm 6 mps 725 mmHg 78%
    09:00 +27°C° 0 mm 6 mps 725 mmHg 75%
    10:00 +28°C° 0 mm 6 mps 725 mmHg 72%
    11:00 +28°C° 0 mm 6 mps 725 mmHg 70%
    12:00 +28°C° 0 mm 6 mps 724 mmHg 68%
    13:00 +29°C° 0 mm 6 mps 724 mmHg 65%
    14:00 +28°C° 0 mm 6 mps 724 mmHg 66%
    15:00 +28°C° 0 mm 6 mps 723 mmHg 66%
    16:00 +28°C° 0 mm 6 mps 723 mmHg 66%
    17:00 +28°C° 0 mm 6 mps 723 mmHg 68%
    18:00 +27°C° 0 mm 6 mps 723 mmHg 70%
    19:00 +26°C° 0 mm 6 mps 724 mmHg 73%
    20:00 +26°C° 0 mm 6 mps 724 mmHg 74%
    21:00 +26°C° 0 mm 6 mps 724 mmHg 75%
    22:00 +26°C° 0 mm 6 mps 725 mmHg 76%
    23:00 +26°C° 0 mm 6 mps 724 mmHg 77%

    15 December, Friday

    Time Temperature Precipitation Wind Pressure Humidity
    00:00 +24°C° 0 mm 7 mps 724 mmHg 77%
    01:00 +24°C° 0 mm 7 mps 724 mmHg 78%
    02:00 +24°C° 0 mm 6 mps 724 mmHg 78%
    03:00 +24°C° 0 mm 6 mps 723 mmHg 79%
    04:00 +24°C° 0 mm 6 mps 723 mmHg 79%
    05:00 +24°C° 0 mm 6 mps 724 mmHg 78%
    06:00 +24°C° 0 mm 6 mps 724 mmHg 76%
    07:00 +24°C° 0 mm 6 mps 724 mmHg 74%
    08:00 +26°C° 0 mm 6 mps 724 mmHg 73%
    09:00 +27°C° 0 mm 6 mps 724 mmHg 71%
    10:00 +27°C° 0 mm 6 mps 725 mmHg 69%
    11:00 +28°C° 0 mm 6 mps 724 mmHg 67%
    12:00 +28°C° 0 mm 6 mps 724 mmHg 65%
    13:00 +29°C° 0 mm 6 mps 723 mmHg 63%
    14:00 +29°C° 0 mm 6 mps 723 mmHg 64%
    15:00 +28°C° 0 mm 6 mps 723 mmHg 65%
    16:00 +28°C° 0 mm 6 mps 722 mmHg 66%
    17:00 +28°C° 0 mm 5 mps 723 mmHg 68%
    18:00 +27°C° 0 mm 5 mps 723 mmHg 71%
    19:00 +27°C° 0 mm 5 mps 723 mmHg 73%
    20:00 +26°C° 0 mm 5 mps 724 mmHg 75%
    21:00 +26°C° 0 mm 5 mps 724 mmHg 76%
    22:00 +26°C° 0 mm 5 mps 724 mmHg 77%
    23:00 +25°C° 0.1 mm 5 mps 724 mmHg 78%

    16 December, Saturday

    Time Temperature Precipitation Wind Pressure Humidity
    00:00 +25°C° 0.1 mm 5 mps 724 mmHg 79%
    01:00 +25°C° 0.1 mm 5 mps 723 mmHg 79%
    02:00 +25°C° 0.1 mm 5 mps 723 mmHg 79%
    03:00 +25°C° 0.1 mm 5 mps 723 mmHg 79%
    04:00 +25°C° 0.1 mm 5 mps 723 mmHg 79%
    05:00 +25°C° 0.1 mm 5 mps 723 mmHg 78%
    06:00 +25°C° 0.1 mm 5 mps 724 mmHg 77%
    07:00 +25°C° 0.1 mm 5 mps 724 mmHg 76%
    08:00 +26°C° 0 mm 5 mps 724 mmHg 73%
    09:00 +27°C° 0 mm 5 mps 724 mmHg 69%
    10:00 +28°C° 0 mm 4 mps 724 mmHg 66%
    11:00 +28°C° 0 mm 4 mps 724 mmHg 64%
    12:00 +28°C° 0 mm 4 mps 723 mmHg 62%
    13:00 +29°C° 0 mm 4 mps 723 mmHg 61%
    14:00 +29°C° 0 mm 4 mps 723 mmHg 60%
    15:00 +29°C° 0 mm 4 mps 723 mmHg 60%
    16:00 +29°C° 0 mm 4 mps 723 mmHg 60%
    17:00 +28°C° 0 mm 4 mps 723 mmHg 64%
    18:00 +27°C° 0 mm 4 mps 724 mmHg 68%
    19:00 +27°C° 0 mm 4 mps 724 mmHg 72%
    20:00 +27°C° 0.1 mm 4 mps 724 mmHg 73%
    21:00 +26°C° 0.1 mm 4 mps 725 mmHg 74%
    22:00 +26°C° 0.1 mm 4 mps 725 mmHg 75%
    23:00 +26°C° 0 mm 4 mps 724 mmHg 77%
    Show more